Regional Weather Roundup
Issued by NWS

Home | Current Version | Previous Version | Text Only | Print | Product List | Glossary On
Versions: 1 2 3 4 5 6 7 8 9 10 11 12 13 14 15 16 17 18 19 20 21 22 23 24 25 26 27 28 29 30 31 32 33 34 35 36 37 38 39 40 41 42 43 44 45 46 47 48 49 50
000
ASUS43 KDTX 241810
RWRMI
MICHIGAN HOURLY REGIONAL WEATHER ROUNDUP
NATIONAL WEATHER SERVICE DETROIT/PONTIAC MI
200 PM EDT THU APR 24 2014

NOTE: "FAIR" INDICATES FEW OR NO CLOUDS BELOW 12,000 FEET WITH NO
SIGNIFICANT WEATHER AND/OR OBSTRUCTION TO VISIBILITY.

MIZ047>049-052>055-059>063-066>070-074>076-081>083-241900-
SOUTHEAST LOWER MICHIGAN

CITY           SKY/WX    TMP DP  RH WIND       PRES   REMARKS
ADRIAN         PTSUNNY   54  25  32 SE14      30.08F
6HR MIN TEMP:  44; 6HR MAX TEMP:  54;

ALMA           CLOUDY    53  18  24 SE9       30.08F
ANN ARBOR      PTSUNNY   52  16  24 SE14G22   30.10F
BAD AXE        CLOUDY    51  20  30 SE6       30.13F
6HR MIN TEMP:  33; 6HR MAX TEMP:  52;

DETROIT CITY   MOSUNNY   55  19  24 SE10      30.11F
6HR MIN TEMP:  41; 6HR MAX TEMP:  55;

DETROIT        CLOUDY    52  16  24 SE13G22   30.12F
6HR MIN TEMP:  41; 6HR MAX TEMP:  53;

FLINT          PTSUNNY   57  18  21 E12       30.09F
6HR MIN TEMP:  40; 6HR MAX TEMP:  57;

GROSSE ILE     PTSUNNY   52  18  25 S12       30.11F
HILLSDALE      MOSUNNY   55  17  22 SE13G21   30.05F
6HR MIN TEMP:  44; 6HR MAX TEMP:  55;

HOWELL         PTSUNNY   53  16  23 SE15      30.08F
6HR MIN TEMP:  41; 6HR MAX TEMP:  54;


CITY           SKY/WX    TMP DP  RH WIND       PRES   REMARKS
JACKSON        PTSUNNY   51  25  36 E7        30.06F
6HR MIN TEMP:  42; 6HR MAX TEMP:  52;

LAMBERTVILLE   PTSUNNY   52  27  37 E10G16    30.09F
LANSING        PTSUNNY   54  19  25 SE12      30.07F
6HR MIN TEMP:  43; 6HR MAX TEMP:  56;

LAPEER         NOT AVBL
MASON          PTSUNNY   53  23  30 E12       30.07F
MONROE         PTSUNNY   52  21  30 SE14G20   30.10F
MT. CLEMENS    PTSUNNY   53  16  23 VRB6      30.11F
6HR MIN TEMP:  38; 6HR MAX TEMP:  53;

PONTIAC        PTSUNNY   52  12  20 VRB7G20   30.09F
6HR MIN TEMP:  39; 6HR MAX TEMP:  54;

PORT HOPE        N/A     40  32  73 E9        30.14F
6HR MIN TEMP:  33; 6HR MAX TEMP:  42;

PORT HURON     MOSUNNY   54  25  32 E7        30.12F
TRI CITIES     CLOUDY    56  18  22 E14       30.10F
6HR MIN TEMP:  39; 6HR MAX TEMP:  57;

YPSILANTI      PTSUNNY   56  16  20 SE17      30.10F
6HR MIN TEMP:  44; 6HR MAX TEMP:  56;

$$
MIZ043>046-050>051-056>058-064>065-071>073-077>080-241900-
SOUTHWEST LOWER MICHIGAN

CITY           SKY/WX    TMP DP  RH WIND       PRES   REMARKS
BATTLE CREEK   PTSUNNY   54  21  27 SE14      30.04F
6HR MIN TEMP:  47; 6HR MAX TEMP:  54; 6HR PCP: TRACE;

BENTON HARBOR  CLOUDY    59  25  27 SE16G29   29.95F
6HR MIN TEMP:  46; 6HR MAX TEMP:  59; 6HR PCP: TRACE;

BIG RAPIDS     CLOUDY    52  27  38 SE15G21   30.04F
6HR MIN TEMP:  41; 6HR MAX TEMP:  52;

COLDWATER      CLOUDY    54  15  21 SE18G25   30.04F
6HR MIN TEMP:  45; 6HR MAX TEMP:  55;

HOLLAND        CLOUDY    58  28  32 SE16G26   30.00F
6HR MIN TEMP:  47; 6HR MAX TEMP:  58; 6HR PCP:  0.01;

GRAND RAPIDS   CLOUDY    56  27  32 SE16      30.03F
6HR MIN TEMP:  44; 6HR MAX TEMP:  56; 6HR PCP: TRACE;

KALAMAZOO      CLOUDY    55  19  24 SE16G23   30.02F
6HR MIN TEMP:  48; 6HR MAX TEMP:  56;

MARSHALL       PTSUNNY   53  20  27 SE12G18   30.04F
MUSKEGON       CLOUDY    56  25  30 SE24      29.98F
6HR MIN TEMP:  45; 6HR MAX TEMP:  57; 6HR PCP:  0.02;

$$
MIZ016>042-241900-
NORTHERN LOWER MICHIGAN

CITY           SKY/WX    TMP DP  RH WIND       PRES   REMARKS
ALPENA         PTSUNNY   52  24  33 E12       30.13F
6HR MIN TEMP:  33; 6HR MAX TEMP:  52;

BEAVER ISLAND  CLOUDY    47  22  36 E10       30.08F
6HR MIN TEMP:  34; 6HR MAX TEMP:  48;

BELLAIRE       CLOUDY    55  18  23 S8        30.05F
6HR MIN TEMP:  34; 6HR MAX TEMP:  55;

CADILLAC       CLOUDY    49  21  33 SE16      30.04F
CHARLEVOIX     CLOUDY    51  17  26 E10G17    30.09F
6HR MIN TEMP:  35; 6HR MAX TEMP:  51;

FRANKFORT      CLOUDY    53  23  31 SE9       30.01F
GAYLORD        CLOUDY    51  15  23 SE8       30.07F
6HR MIN TEMP:  34; 6HR MAX TEMP:  51;

GRAYLING       CLOUDY    53  17  24 SE10G16   30.08F
6HR MIN TEMP:  33; 6HR MAX TEMP:  53;

HARBOR SPRINGS CLOUDY    52  20  28 SE6       30.07F
HOUGHTON LAKE  CLOUDY    52  19  27 SE9       30.09F
6HR MIN TEMP:  35; 6HR MAX TEMP:  52;

MANISTEE       CLOUDY    48  28  46 SE14G22   30.03F
OSCODA         PTSUNNY   48  26  42 E6        30.14F
PELLSTON       CLOUDY    52  18  26 SE9G22    30.09F
6HR MIN TEMP:  31; 6HR MAX TEMP:  53;

TRAVERSE CITY  CLOUDY    54  18  24 SE10G18   30.03F
6HR MIN TEMP:  36; 6HR MAX TEMP:  55;

$$
MIZ007>008-015-241900-
EASTERN UPPER MICHIGAN

CITY           SKY/WX    TMP DP  RH WIND       PRES   REMARKS
KINROSS        CLOUDY    52  18  25 SE13      30.10F
6HR MIN TEMP:  32; 6HR MAX TEMP:  52;

MACKINAC ISLAN CLOUDY    38  29  70 E12       30.10F
6HR MIN TEMP:  35; 6HR MAX TEMP:  41;

NEWBERRY       CLOUDY    46  23  40 SE10      30.08F
6HR MIN TEMP:  32; 6HR MAX TEMP:  47;

S. S. MARIE      N/A     51  22  31 SE9       30.10F
6HR MIN TEMP:  32; 6HR MAX TEMP:  51;

$$
MIZ004>006-011>014-085-241900-
CENTRAL UPPER MICHIGAN

CITY           SKY/WX    TMP DP  RH WIND       PRES   REMARKS
MANISTIQUE     PTSUNNY   46  23  40 SE8G17    30.06F
6HR MIN TEMP:  34; 6HR MAX TEMP:  46;

ESCANABA       CLOUDY    43  27  52 E16       30.04F
6HR MIN TEMP:  36; 6HR MAX TEMP:  43;

MENOMINEE      CLOUDY    37  34  87 E8        30.01F
6HR MIN TEMP:  36; 6HR MAX TEMP:  39; 6HR PCP:  0.07;

SAWYER-GWINN   CLOUDY    43  19  39 SE12      30.00F
$$
MIZ001>003-009>011-084-241900-
WESTERN UPPER MICHIGAN

CITY           SKY/WX    TMP DP  RH WIND       PRES   REMARKS
IRON MOUNTAIN  LGT RAIN  39  34  81 SE9       29.98F
6HR MIN TEMP:  38; 6HR MAX TEMP:  42; 6HR PCP: TRACE;

HOUGHTON       CLOUDY    37  24  59 E13       29.98F
6HR MIN TEMP:  36; 6HR MAX TEMP:  38;

COPPER HARBOR    N/A     43  20  39 S8G18     30.03F
6HR MIN TEMP:  37; 6HR MAX TEMP:  43;

IRONWOOD       CLOUDY    37  32  81 E12       29.86F
6HR MIN TEMP:  37; 6HR MAX TEMP:  39;

$$

ABBREVIATIONS USED IN REMARKS
   TC - TEMPERATURE IN CELSIUS
  WCI - WIND CHILL INDEX
   HX - HEAT INDEX
  VSB - VISIBILITY




USA.gov is the U.S. government's official web portal to all federal, state and local government web resources and services.